Weather History for Whiting Fld NAS, FL

Change the Weather History Date:

Saturday, December 8, 2012

  Actual Average Record
Temperature  
Mean Temperature 68 °F -  
Max Temperature 78 °F 62 °F 80 °F (1998)
Min Temperature 57 °F 44 °F 30 °F (2008)
Cooling Degree Days 2    
Growing Degree Days 18 (Base 50)    
Moisture  
Dew Point 59 °F    
Average Humidity 80    
Maximum Humidity 94    
Minimum Humidity 47    
Precipitation  
Precipitation 0.03 in - - ()
Sea Level Pressure  
Sea Level Pressure 29.97 in    
Wind  
Wind Speed 2 mph (SE)    
Max Wind Speed 9 mph    
Max Gust Speed -    
Visibility 6 miles    
Events Fog , Rain    
Averages and records for this station are not official NWS values.
T = Trace of Precipitation, MM = Missing Value Source: NWS Daily Summary

Daily Weather History Graph

Daily Weather History Graph

Search for Another Location

Airport:

Trip Planner

Search our weather history database for the weather conditions in past years. The results will help you decide how hot, cold, wet, or windy it might be!

Date:

Astronomy

Dec. 08, 2012 Rise Set
Actual Time 6:33 AM CST 4:46 PM CST
Civil Twilight 6:07 AM CST 5:13 PM CST
Nautical Twilight 5:37 AM CST 5:43 PM CST
Astronomical Twilight 5:07 AM CST 6:12 PM CST
Moon 1:15 AM CST (12/8) 1:01 PM CST (12/8)
Length of Visible Light 11h 05m
Length of Day
10h 13m
Waning Crescent, 28% of the Moon is Illuminated
Dec 8
Waning Crescent
Dec 13
New
Dec 19
First Quarter
Dec 28
Full
Jan 4
Last Quarter

Hourly Weather History & Observations

Time (CST) Temp. Dew Point Humidity Pressure Visibility Wind Dir Wind Speed Gust Speed Precip Events Conditions
12:11 AM 60.8 °F 55.4 °F 82% 29.98 in 5.0 mi Calm Calm - N/A   Haze
12:23 AM 60.8 °F 55.4 °F 82% 29.97 in 5.0 mi ENE 3.5 mph - N/A   Haze
12:56 AM 60.1 °F 55.9 °F 86% 29.93 in 5.0 mi ENE 3.5 mph - N/A   Clear
1:56 AM 61.0 °F 55.9 °F 83% 29.91 in 4.0 mi East 3.5 mph - N/A   Haze
2:56 AM 61.0 °F 57.0 °F 87% 29.91 in 4.0 mi Calm Calm - N/A   Overcast
3:56 AM 63.0 °F 57.9 °F 84% 29.91 in 5.0 mi Calm Calm - 0.00 in Rain Light Rain
4:56 AM 63.0 °F 57.9 °F 84% 29.92 in 6.0 mi ENE 3.5 mph - 0.00 in   Haze
5:56 AM 63.0 °F 57.9 °F 84% 29.94 in 6.0 mi Calm Calm - 0.00 in   Haze
6:41 AM 62.6 °F 57.2 °F 82% 29.99 in 2.0 mi ENE 3.5 mph - 0.00 in Rain Rain
6:49 AM 62.6 °F 57.2 °F 82% 30.00 in 1.5 mi Calm Calm - 0.01 in Rain Light Rain
6:56 AM 63.0 °F 59.0 °F 87% 29.96 in 1.2 mi Calm Calm - 0.01 in Rain Light Rain
7:14 AM 62.6 °F 60.8 °F 94% 30.00 in 1.5 mi Calm Calm - 0.02 in Rain Light Rain
7:17 AM 62.6 °F 60.8 °F 94% 30.00 in 2.0 mi Calm Calm - 0.02 in Rain Light Rain
7:27 AM 62.6 °F 60.8 °F 94% 30.01 in 3.0 mi Calm Calm - 0.02 in   Overcast
7:33 AM 62.6 °F 60.8 °F 94% 30.01 in 3.0 mi Calm Calm - 0.02 in   Overcast
7:56 AM 64.0 °F 60.1 °F 87% 29.96 in 4.0 mi SE 6.9 mph - 0.02 in   Overcast
8:04 AM 64.4 °F 60.8 °F 88% 30.01 in 4.0 mi ESE 5.8 mph - N/A   Overcast
8:49 AM 64.4 °F 62.6 °F 94% 30.02 in 5.0 mi East 4.6 mph - N/A   Overcast
8:56 AM 64.9 °F 61.0 °F 87% 29.99 in 5.0 mi ESE 3.5 mph - N/A   Overcast
9:56 AM 69.1 °F 62.1 °F 78% 29.97 in 9.0 mi SE 4.6 mph - N/A   Overcast
10:43 AM 71.6 °F 62.6 °F 73% 30.01 in 10.0 mi SE 6.9 mph - N/A   Mostly Cloudy
10:56 AM 73.0 °F 63.0 °F 71% 29.97 in 10.0 mi ESE 4.6 mph - N/A   Mostly Cloudy
11:34 AM 75.2 °F 62.6 °F 65% 29.98 in 10.0 mi Variable 4.6 mph - N/A   Mostly Cloudy
11:44 AM 73.4 °F 60.8 °F 65% 29.98 in 10.0 mi SSW 4.6 mph - N/A   Scattered Clouds
11:56 AM 75.0 °F 61.0 °F 62% 29.94 in 10.0 mi SSW 3.5 mph - N/A   Mostly Cloudy
12:10 PM 75.2 °F 60.8 °F 61% 29.96 in 10.0 mi South 5.8 mph - N/A   Mostly Cloudy
12:24 PM 75.2 °F 60.8 °F 61% 29.96 in 10.0 mi Calm Calm - N/A   Mostly Cloudy
12:47 PM 78.8 °F 57.2 °F 47% 29.96 in 10.0 mi WSW 5.8 mph - N/A   Scattered Clouds
12:56 PM 75.0 °F 59.0 °F 57% 29.91 in 10.0 mi SW 3.5 mph - N/A   Partly Cloudy
1:56 PM 77.0 °F 59.0 °F 54% 29.90 in 10.0 mi South 5.8 mph - 0.00 in   Scattered Clouds
2:56 PM 75.9 °F 60.1 °F 58% 29.91 in 10.0 mi South 9.2 mph - N/A   Partly Cloudy
3:56 PM 73.9 °F 60.1 °F 62% 29.91 in 10.0 mi South 9.2 mph - N/A   Scattered Clouds
4:56 PM 70.0 °F 62.1 °F 76% 29.93 in 10.0 mi South 6.9 mph - N/A   Clear
5:56 PM 66.0 °F 59.0 °F 78% 29.94 in 10.0 mi Calm Calm - N/A   Clear
6:56 PM 63.0 °F 57.9 °F 84% 29.96 in 10.0 mi Calm Calm - N/A   Clear
7:39 PM 62.6 °F 57.2 °F 82% 30.00 in 10.0 mi Calm Calm - N/A   Mostly Cloudy
7:56 PM 64.0 °F 60.1 °F 87% 29.97 in 10.0 mi Calm Calm - N/A   Overcast
8:38 PM 62.6 °F 59.0 °F 88% 30.02 in 9.0 mi Calm Calm - N/A   Scattered Clouds
8:56 PM 64.0 °F 60.1 °F 87% 29.98 in 10.0 mi South 3.5 mph - N/A   Mostly Cloudy
9:42 PM 60.8 °F 57.2 °F 88% 30.02 in 1.8 mi SSE 3.5 mph - N/A   Clear
9:56 PM 61.0 °F 57.0 °F 87% 29.99 in 0.8 mi Calm Calm - N/A   Clear
10:06 PM 60.8 °F 57.2 °F 88% 30.03 in 0.2 mi Calm Calm - N/A Fog Fog
10:13 PM 62.6 °F 57.2 °F 82% 30.02 in 0.2 mi ESE 3.5 mph - N/A   Haze
10:56 PM 59.0 °F 55.0 °F 87% 29.98 in 0.2 mi Calm Calm - N/A Fog Fog
11:46 PM 57.2 °F 53.6 °F 88% 30.02 in 1.0 mi Calm Calm - N/A   Mist
11:56 PM 57.9 °F 54.0 °F 87% 29.97 in 2.0 mi Calm Calm - N/A   Clear